GSAT0101 (GALILEO-PFM)

Last updated on Sun Jun 21 2026 00:02:55 GMT+0000 (Coordinated Universal Time)

1 37846U 11060A 26171.36791132 -.00000096 00000+0 00000+0 0 9999 2 37846 56.9933 341.6747 0002981 53.5460 306.4763 1.70475663 91176
UTC large
Height (km)
Speed (km/s)
/
Latitude / Longitude
Inclination (degrees)
Orbital Period (minutes)
Azimuth
Elevation
Range (km)
Doppler Factor

Next 0 passes for location: London (51.5072 / 0.1276)

No passes found over London.
GSAT0101 (GALILEO-PFM)